www.pogodaiklimat.ru

Погода и климат >> Архив погоды >> Иран >> Khark


ПОГОДА в Khark

  • Прогноз погоды в Khark
  • Монитор погоды в Khark
  • Климат города

АРХИВ ПОГОДЫ в Khark

Время (UTC), дата Ветер
(напр.,м/с)
 
Видим.   Явления Облачность Т
(С)
Тd
(С)
f
(%)
Тe
(С)
Тes
(С)
Комфортность P
(гПа)
Po
(гПа)
Тmin
(С)
Tmax
(С)
R
(мм)
R24
(мм)
S
(см)
03 12.12 СЗ 8 10 км ясно +15.9 +8.7 62 +14 +14 1019.9 1019.4 +15.9
06 12.12 СЗ 6 10 км ясно +16.0 +9.2 64 +15 +16 1020.8 1020.3
09 12.12 СЗ 7 10 км ясно +17.1 +10.2 64 +16 +18 1019.4 1018.9
12 12.12 СЗ 7 10 км ясно +17.3 +10.1 63 +16 +17 1018.3 1017.8
15 12.12 СЗ 5 10 км ясно +17.6 +10.4 63 +17 +17 1018.9 1018.4 +17.6
03 13.12 СЗ 5 10 км ясно +17.0 +9.3 60 +16 +16 1019.4 1018.9 +16.8
06 13.12 штиль 0 10 км ясно +19.3 +11.9 62 +20 +26 1020.4 1019.9
09 13.12 штиль 0 10 км ясно +18.7 +12.8 69 +19 +30 1018.7 1018.2
12 13.12 СВ 4 10 км ясно +19.2 +12.6 66 +20 +22 1017.5 1017.0
15 13.12 штиль 0 10 км ясно +15.5 +10.1 70 +15 +15 1017.6 1017.1 +20.2
03 14.12 штиль 0 7000 м дымка ясно +13.7 +13.4 98 +13 +13 1017.5 1017.0 +11.3
06 14.12 В 3 10 км ясно +19.4 +14.1 71 +21 +24 комфорт 1018.6 1018.1
09 14.12 ЮВ 4 10 км 1/1 1200 м
[Sc]
+20.5 +14.2 67 +23 +28 комфорт 1017.4 1016.9
12 14.12 ЮВ 4 10 км 3/3 1050 м
[Sc]
+21.4 +15.2 68 +25 +26 комфорт 1016.0 1015.5
15 14.12 ЮВ 3 10 км 1/1 1200 м
[Sc]
+20.9 +15.2 70 +24 +24 комфорт 1016.1 1015.6 +21.9
03 15.12 Ю 4 10 км 6/3 1200 м
[Sc Ac und]
+21.9 +14.8 64 +25 +25 комфорт 1014.5 1014.0 +19.9
06 15.12 Ю 6 10 км 8/5 1050 м
[Sc Ac As]
+22.9 +16.6 68 +28 +28 душно 1016.1 1015.6
09 15.12 Ю 6 10 км 9/4 1200 м
[Sc Cs]
+23.2 +14.9 60 +27 +29 душно 1015.1 1014.6
12 15.12 Ю 5 10 км 8/4 1050 м
[Sc Cs]
+22.5 +14.7 61 +26 +27 жарко 1014.1 1013.6
15 15.12 Ю 5 10 км 8/3 1200 м
[Sc Cs]
+21.3 +13.7 62 +24 +24 комфорт 1015.7 1015.2 +23.8
03 16.12 штиль 0 8000 м мгла 1/0
[Ac trans]
+17.4 +11.2 67 +17 +17 1016.9 1016.4 +17.1
06 16.12 ЮВ 2 7000 м мгла {гроза} ясно +21.7 +13.4 59 +24 +28 комфорт 1019.1 1018.6
09 16.12 ЮВ 4 7000 м мгла ясно +22.2 +14.7 62 +26 +31 душно 1018.1 1017.6
12 16.12 ЮВ 6 7000 м мгла ясно +21.6 +14.8 65 +25 +26 комфорт 1017.6 1017.1
15 16.12 ЮВ 3 8000 м мгла ясно +20.9 +14.8 68 +24 +24 комфорт 1019.0 1018.5 +22.4
03 17.12 штиль 0 10 км ясно +18.0 +14.0 77 +18 +18 1021.5 1021.0 +17.1
06 17.12 С 4 10 км ясно +20.9 +14.4 66 +24 +27 комфорт 1022.9 1022.4
09 17.12 СВ 5 10 км ясно +21.3 +15.9 71 +25 +29 комфорт 1021.6 1021.1
12 17.12 СЗ 3 10 км ясно +21.4 +14.2 64 +24 +26 комфорт 1020.3 1019.8
15 17.12 СЗ 4 10 км ясно +20.1 +14.2 69 +22 +22 комфорт 1020.9 1020.4 +21.8
03 18.12 СЗ 9 10 км ясно +19.2 +12.5 65 +20 +20 1022.5 1022.0 +19.0
06 18.12 С 7 12 км ясно +20.1 +11.3 57 +21 +22 комфорт 1024.3 1023.8
09 18.12 С 9 12 км ясно +20.5 +11.9 58 +22 +23 комфорт 1023.4 1022.9
12 18.12 С 9 12 км ясно +20.2 +12.6 62 +22 +22 комфорт 1021.6 1021.1
15 18.12 С 8 12 км ясно +20.1 +12.4 61 +21 +21 комфорт 1022.5 1022.0 +20.8

 

Местоположение метеостанции Khark (Иран): широта 29.26 долгота 50.32 высота над уровнем моря 3 м.

В архиве по умолчанию представлена погода в Khark за последнюю неделю. Архивные данные за месяц целиком и за предыдущие месяцы, начиная с января 2011 года, Вы можете получить, выбрав интересующий диапазон дат из раскрывающегося списка и нажав кнопку "Ввод!".

Внимание! Время в таблицах - всемирное. Для получения местного времени необходимо прибавить поправку, которая в Khark равна 3.5 ч.

Смотрите также архив погоды в соседних городах и на ближайших метеорологических станциях:

Погода в Bushehr Airport (Иран) (59 км)
Погода в Bushehr (Иран) (62 км)
Погода в Gach Saran (Иран) (137 км)
Погода в Nuwasib (Кувейт) (175 км)
Погода в Umm-Al-Maradim (Кувейт) (175 км)
Погода в Omidieh (Иран) (179 км)
Погода в Fao (Ирак) (193 км)
Погода в Bubiyan (Кувейт) (196 км)
Погода в Yasuj (Иран) (198 км)
Погода в Failaka Island (Кувейт) (199 км)

Пояснения к столбцам:

Ветер - указаны скорость ветра в м/с - средняя за 10 мин, порывы в срок и между сроками (в фигурных скобках) и направление, откуда дует ветер: С - северный, СВ - северо-восточный, В - восточный, ЮВ - юго-восточный, Ю - южный, ЮЗ - юго-западный, З - западный, СЗ - северо-западный.
Видимость - горизонтальная дальность видимости в метрах или километрах. При видимости от 1 до 10 км при отсутствии осадков обычно наблюдается дымка, при ухудшении видимости до 1 км и менее - туман. В сухую погоду видимость может ухудшаться дымом, пылью или мглою.
Явления - указаны атмосферные явления, наблюдавшиеся в срок или в последний час перед сроком; фигурными скобками обозначены явления, наблюдавшиеся между сроками (за 1-3 часа до срока); квадратными скобками обозначены град или гололедные отложения с указанием их диаметра в мм.
Облачность - указаны через наклонную черту общая и нижняя облачность в баллах и высота нижней границы облаков в метрах; квадратными скобками обозначены формы облаков: Ci - перистые, Cs - перисто-слоистые, Cc - перисто-кучевые, Ac - высококучевые, As - высокослоистые, Sc - слоисто-кучевые, Ns - слоисто-дождевые, Cu - кучевые, Cb - кучево-дождевые. Подробнее классификацию облаков см. в Атласе облаков (PDF).
T - Температура воздуха - температура, измеренная на высоте 2 м над землей.
Td - Температура точки росы - температура, при понижении до которой содержащийся в воздухе водяной пар достигнет насыщения.
f - Относительная влажность воздуха - влажноcть воздуха, измеренная на высоте 2 м над землей.
Te - Эффективная температура - температура, которую ощущает одетый по сезону человек в тени. Характеристика душности погоды. При расчете учитывается влияние влажности воздуха и скорости ветра на теплоощущения человека.
Tes - Эффективная температура на солнце - температура, которую ощущает человек, с поправкой на солнечный нагрев. Характеристика знойности погоды. Зависит от высоты солнца над горизонтом, облачности и скорости ветра. Ночью, в пасмурную погоду, а также при ветре 12 м/с и более поправка равна нулю.
P - Атмосферное давление - приведенное к уровню моря атмосферное давление.
Po - Атмосферное давление - измеренное на уровне метеостанции атмосферное давление.
Tmin - Минимальная температура - минимум температуры воздуха на высоте 2 м над землей.
Tmax - Максимальная температура - максимум температуры воздуха на высоте 2 м над землей.
R - Количество осадков - Количество выпавших осадков за период времени, мм. При наведении курсора мыши на число - период времени, за который выпало указанное количество осадков.
R24 - Количество осадков - Количество выпавших осадков за 24 часа, мм.
S - Снежный покров - Высота снежного покрова, см. При наведении курсора мыши на число - состояние снежного покрова и степень покрытия местности в баллах.